Wind_Speed
4 4 3 4 5 5 6 6 6 6 6 6 6 6 6 6 5 5 4 4 5 5 5 5 5 4 3 3 3 3 3 4 4 3 3 4 4 4 5 5 5 4 3
3 3 3 3 5 5 6 6 6 6 5 6 5 6 6 5 5 5 4 5 5 5 5 4 4 3 4 4 3 3 4 4 4 4 3 3 3 4 5 6 5 4 4
4 3 3 4 6 7 7 5 5 5 6 6 5 5 5 5 5 5 4 5 4 4 4 4 3 3 3 4 4 3 3 4 3 4 3 3 3 4 5 5 5 5 4
4 4 4 6 7 7 6 5 5 5 5 5 5 5 5 5 5 5 5 5 4 4 4 4 3 3 3 3 2 2 3 3 3 3 3 3 2 3 4 4 4 4 5
5 5 5 6 7 7 7 6 5 5 5 4 4 4 4 5 5 5 5 5 5 5 5 4 3 3 3 2 2 2 2 3 3 3 3 2 2 2 3 3 3 3 4
6 6 6 7 6 6 6 6 5 5 5 4 4 4 4 4 4 5 5 5 5 4 4 4 4 3 2 2 2 2 2 3 3 2 2 2 2 2 3 3 3 3 3
7 7 7 6 6 6 6 5 5 4 5 4 4 4 4 4 4 5 4 4 5 4 4 4 3 3 2 3 3 2 2 2 3 3 3 2 2 2 3 3 3 3 3
8 7 7 6 5 5 5 4 4 5 4 4 4 4 4 4 4 4 4 4 4 4 3 3 3 2 3 3 3 3 3 3 3 3 2 2 2 2 2 2 2 3 3
9 9 7 6 6 5 4 4 4 4 4 4 4 3 3 3 4 4 3 3 3 2 2 3 2 2 2 2 2 2 3 3 3 2 1 1 1 2 2 2 2 2 2
10 9 8 7 6 5 4 4 4 4 4 3 3 3 3 3 3 3 2 2 2 2 3 3 2 1 1 1 1 2 3 2 1 1 1 1 0 1 2 2 3 2 2
10 9 9 8 7 6 4 4 4 4 4 3 3 3 3 3 2 2 2 2 2 2 2 2 2 1 1 1 1 2 1 1 0 1 1 1 1 2 2 2 2 2 2
9 9 8 8 7 6 5 4 4 4 4 3 3 3 3 3 2 2 2 2 2 2 2 2 2 2 2 2 2 2 1 1 1 1 1 1 1 2 3 3 3 3 3
9 8 7 7 6 5 4 4 4 4 4 4 3 3 2 2 2 2 1 2 3 2 1 1 1 1 1 2 2 2 2 2 2 1 1 2 2 3 3 4 4 4 4
9 9 8 8 7 6 5 5 4 4 4 4 3 3 2 1 2 2 2 2 2 2 1 1 1 1 1 1 1 2 2 2 2 2 2 2 3 3 3 4 4 4 5
9 9 9 8 7 6 5 5 4 4 4 4 4 3 2 2 2 1 2 2 1 2 2 1 0 1 1 1 2 2 2 3 3 4 3 3 3 3 3 3 3 5 5
9 9 9 8 7 7 6 5 4 4 4 5 4 4 3 3 3 2 2 2 1 1 1 0 0 0 0 1 2 2 3 3 3 3 3 3 3 4 3 3 3 4 4
9 9 8 8 7 6 6 5 5 5 5 5 5 4 4 3 3 2 2 1 1 1 0 0 0 0 1 2 2 2 3 3 3 3 4 4 4 3 4 4 4 4 5
10 10 9 8 7 7 7 6 6 5 5 4 5 4 3 3 4 3 2 1 1 1 2 2 1 1 1 2 2 2 3 4 4 4 4 4 4 5 5 5 5 5 5
10 11 10 9 8 8 7 7 7 6 5 5 5 5 4 4 4 3 3 2 2 1 2 2 2 1 1 2 3 3 3 3 3 3 3 3 4 4 5 6 6 6 6
10 10 10 10 9 8 8 8 7 6 5 5 4 4 4 4 4 3 3 2 2 2 2 2 1 1 2 3 3 3 2 2 2 3 3 4 4 5 5 5 6 6 7
9 10 10 10 9 9 9 8 7 6 6 5 5 4 3 4 3 3 2 2 2 3 2 2 1 1 2 3 4 3 3 2 2 2 3 4 4 5 5 6 6 7 8
9 9 10 9 9 8 8 8 7 6 6 5 5 4 3 3 3 2 2 2 3 2 2 2 1 1 2 3 3 3 3 3 3 2 2 3 3 4 4 5 6 7 7
7 8 9 8 8 7 7 7 7 6 5 4 4 4 3 2 2 2 1 2 2 1 2 2 2 2 3 4 4 3 3 3 2 2 2 2 3 3 4 5 5 6 6
6 7 7 7 7 7 6 6 6 5 4 4 3 3 3 2 2 2 2 2 2 1 1 2 2 3 3 3 4 4 4 3 3 3 3 3 3 4 5 6 6 7 6
5 7 7 7 6 6 6 6 5 4 4 3 3 2 2 1 1 1 1 1 1 1 2 2 3 3 4 4 4 4 4 3 4 3 3 3 3 5 5 6 7 7 7
5 6 7 6 5 5 5 5 5 4 4 3 2 2 1 1 1 1 2 2 2 3 2 3 4 4 4 4 4 4 4 4 4 4 4 4 4 6 6 7 7 7 8
Wind_Direction
79 91 97 110 110 112 112 112 108 104 97 92 92 91 90 88 91 83 87 102 119 120 121 121 123 119 115 106 106 102 99 96 89 97 113 136 165 165 165 172 170 172 159
73 101 106 118 121 117 116 112 109 103 96 92 96 94 92 88 85 84 94 103 118 120 119 122 128 123 117 117 99 98 107 98 91 87 91 123 147 157 155 157 164 163 155
70 95 106 124 123 121 121 114 114 108 101 95 96 97 97 97 92 91 98 105 118 123 117 124 127 124 116 109 106 97 100 104 91 92 91 97 117 145 152 156 156 156 151
67 84 106 121 124 123 122 114 112 108 105 98 97 98 99 104 107 100 101 97 103 118 115 113 118 118 116 110 109 101 102 108 102 107 100 96 104 145 158 151 152 149 146
82 86 99 112 119 125 121 115 112 105 105 101 105 102 103 106 107 104 102 95 96 109 110 107 106 111 120 131 127 119 122 121 110 109 99 97 111 145 162 157 160 162 159
89 92 99 113 114 121 124 121 109 105 107 103 107 107 102 105 108 111 111 101 100 103 105 110 105 109 121 124 129 130 120 117 115 119 112 102 118 151 159 150 160 161 166
91 94 96 105 109 113 121 117 104 101 105 108 112 109 108 111 115 120 118 109 104 101 101 107 103 106 111 105 102 106 122 135 126 119 118 107 114 141 138 148 155 151 159
85 91 93 102 108 109 118 107 101 98 94 100 113 109 106 106 109 112 121 112 107 100 97 107 105 106 100 95 93 103 121 128 126 133 131 111 102 120 132 143 158 151 152
83 86 91 98 102 106 108 105 95 94 100 105 114 116 113 113 113 106 117 122 114 114 115 120 126 111 105 98 85 112 122 122 134 138 108 100 112 123 145 164 178 179 168
82 79 83 84 94 97 103 101 90 87 89 96 114 121 121 117 118 120 123 126 114 120 127 128 150 164 135 122 100 126 138 117 137 137 106 70 264 211 195 202 209 205 203
80 77 82 81 82 87 97 96 90 81 83 87 103 114 127 129 128 142 145 154 145 138 137 126 150 131 129 156 134 149 170 143 268 243 264 289 266 255 253 232 214 227 225
76 77 84 80 74 77 84 84 82 73 79 87 100 112 121 122 132 155 160 163 163 168 157 140 139 127 135 164 177 197 240 251 285 272 268 261 261 261 275 268 263 264 255
74 75 77 71 69 70 69 74 67 66 76 81 97 114 116 133 149 147 158 163 174 183 182 162 162 161 162 181 206 222 241 246 265 263 273 271 265 266 275 278 271 267 267
70 70 67 63 65 67 66 65 67 73 77 82 95 109 122 125 132 137 138 156 176 182 172 180 181 195 208 226 241 240 251 268 267 260 272 273 267 270 285 278 270 264 268
67 68 64 62 63 66 66 62 65 82 93 89 94 102 111 117 125 131 124 138 175 201 194 181 124 183 197 262 278 267 274 274 270 264 268 271 275 287 297 289 276 272 268
63 63 60 59 57 56 56 54 68 88 96 93 93 97 100 93 100 106 106 122 152 173 194 229 190 96 323 296 276 270 269 281 281 272 269 266 270 281 298 289 274 271 257
58 59 54 51 48 48 54 63 79 93 91 92 96 94 90 87 100 108 114 114 81 105 147 19 289 305 314 285 276 270 265 273 284 282 277 275 271 276 292 288 281 269 260
54 52 51 49 44 50 59 68 79 95 99 92 96 97 95 95 109 116 118 105 67 68 6 3 12 358 314 301 292 285 277 272 277 273 273 274 279 282 285 283 278 276 268
49 48 48 48 48 55 62 70 76 91 99 101 97 91 98 108 108 115 117 100 89 31 21 34 33 18 327 312 304 301 293 278 273 279 271 278 287 290 286 284 281 280 271
47 48 47 49 57 57 61 70 71 85 95 102 97 89 94 109 104 106 107 92 67 54 56 57 62 24 355 347 326 309 302 287 277 292 285 286 290 292 290 288 285 282 275
46 44 43 50 54 59 66 69 70 77 81 89 88 81 80 100 110 106 96 70 63 57 58 43 36 356 339 343 337 325 304 295 296 307 305 303 297 291 290 293 290 287 283
45 43 44 50 53 57 64 67 69 72 71 74 78 72 73 88 103 106 80 76 75 57 48 45 30 19 355 345 349 345 321 298 293 303 309 316 306 300 298 305 300 294 288
41 40 43 45 50 55 59 61 61 65 68 68 65 61 69 84 89 90 82 60 51 23 24 19 5 3 357 347 341 338 325 306 308 303 308 308 302 301 306 311 313 307 297
37 37 40 41 45 45 44 50 51 53 52 54 56 61 70 81 91 79 57 33 7 353 355 351 351 354 343 329 320 321 318 318 321 326 309 304 303 304 311 315 312 317 315
32 29 32 35 39 36 31 32 34 33 29 29 33 42 52 63 53 57 29 7 338 325 332 329 335 331 331 331 323 321 324 325 325 320 322 324 317 319 322 322 316 311 308
24 21 22 27 30 28 21 20 20 13 9 6 3 15 11 6 357 343 309 310 306 304 314 319 321 326 334 335 333 329 326 322 314 309 312 319 319 317 319 319 314 309 306
Height
5868 5867 5867 5868 5868 5868 5869 5869 5870 5870 5870 5871 5872 5872 5872 5872 5873 5873 5873 5873 5874 5874 5875 5876 5877 5877 5878 5878 5877 5878 5878 5878 5878 5878 5876 5876 5878 5880 5881 5882 5882 5883 5884
5868 5868 5868 5868 5868 5869 5869 5870 5870 5871 5872 5872 5873 5873 5873 5873 5874 5874 5874 5874 5875 5876 5876 5877 5878 5878 5878 5878 5878 5879 5879 5879 5879 5879 5878 5878 5879 5880 5881 5882 5883 5884 5884
5869 5869 5868 5869 5869 5869 5870 5871 5871 5872 5873 5873 5874 5874 5874 5874 5875 5875 5875 5875 5876 5876 5877 5878 5879 5879 5879 5879 5880 5880 5880 5880 5880 5880 5880 5880 5880 5881 5882 5883 5883 5884 5884
5869 5869 5869 5869 5870 5870 5871 5872 5872 5873 5873 5874 5875 5875 5875 5875 5875 5876 5876 5876 5877 5878 5878 5879 5879 5880 5880 5880 5880 5880 5880 5881 5881 5881 5881 5881 5881 5882 5882 5883 5884 5884 5885
5870 5870 5870 5870 5871 5871 5872 5872 5873 5873 5874 5875 5875 5876 5876 5876 5876 5877 5877 5877 5878 5878 5879 5880 5880 5880 5880 5881 5881 5881 5881 5881 5881 5882 5882 5882 5882 5883 5883 5883 5884 5884 5885
5870 5870 5870 5871 5871 5872 5873 5873 5874 5874 5875 5875 5876 5876 5876 5877 5877 5878 5878 5878 5879 5879 5879 5880 5880 5881 5881 5881 5881 5881 5881 5882 5882 5882 5883 5883 5883 5883 5883 5883 5884 5884 5885
5871 5871 5871 5871 5872 5873 5873 5874 5875 5875 5875 5876 5876 5877 5877 5877 5878 5878 5878 5879 5880 5880 5880 5881 5881 5881 5882 5881 5882 5882 5882 5882 5882 5883 5883 5883 5883 5883 5883 5884 5885 5885 5885
5872 5871 5872 5872 5873 5873 5874 5874 5875 5875 5876 5876 5877 5877 5878 5878 5878 5878 5879 5879 5880 5880 5881 5881 5881 5882 5882 5882 5883 5883 5883 5883 5883 5883 5883 5884 5884 5884 5884 5884 5885 5885 5886
5873 5872 5872 5872 5873 5874 5874 5875 5875 5876 5876 5876 5877 5877 5878 5878 5879 5879 5880 5880 5880 5881 5881 5882 5882 5882 5883 5883 5883 5883 5883 5883 5883 5884 5884 5884 5884 5885 5885 5885 5885 5886 5886
5874 5874 5874 5874 5874 5874 5875 5875 5876 5876 5876 5876 5877 5877 5878 5878 5879 5879 5880 5880 5881 5881 5882 5882 5882 5883 5883 5883 5883 5883 5883 5884 5884 5884 5884 5884 5884 5885 5885 5885 5885 5885 5886
5875 5875 5875 5875 5875 5875 5875 5876 5876 5876 5876 5877 5877 5877 5878 5878 5879 5880 5880 5881 5881 5881 5882 5882 5882 5883 5883 5883 5884 5884 5884 5884 5884 5884 5884 5884 5885 5885 5885 5885 5885 5885 5885
5876 5876 5876 5876 5876 5876 5876 5876 5876 5876 5876 5877 5877 5877 5878 5879 5879 5880 5880 5881 5881 5881 5881 5882 5882 5883 5883 5883 5884 5884 5884 5884 5884 5884 5884 5884 5885 5885 5885 5885 5885 5885 5885
5877 5877 5877 5877 5876 5876 5876 5876 5876 5876 5877 5877 5877 5877 5878 5879 5879 5880 5880 5880 5881 5881 5882 5882 5883 5883 5883 5883 5883 5883 5883 5884 5884 5884 5884 5884 5884 5884 5884 5884 5884 5884 5884
5879 5878 5878 5878 5877 5877 5877 5877 5877 5877 5877 5877 5877 5878 5878 5879 5879 5880 5880 5880 5881 5881 5882 5882 5882 5883 5883 5883 5883 5883 5883 5883 5883 5884 5884 5884 5884 5884 5883 5883 5883 5883 5883
5880 5880 5879 5879 5878 5878 5878 5877 5877 5877 5877 5877 5877 5878 5878 5879 5879 5880 5880 5881 5881 5881 5882 5882 5883 5882 5883 5883 5883 5883 5883 5883 5883 5883 5883 5883 5883 5883 5883 5882 5882 5882 5882
5882 5881 5881 5880 5879 5879 5878 5878 5877 5877 5877 5878 5878 5878 5879 5879 5879 5880 5881 5881 5881 5881 5882 5882 5883 5882 5883 5883 5883 5882 5882 5882 5882 5883 5882 5882 5882 5882 5882 5882 5882 5881 5882
5884 5883 5882 5881 5880 5879 5878 5878 5877 5877 5878 5878 5879 5879 5879 5880 5880 5880 5881 5881 5882 5882 5882 5882 5882 5882 5883 5883 5882 5882 5882 5882 5882 5882 5882 5882 5881 5881 5881 5881 5881 5881 5881
5886 5884 5883 5882 5881 5880 5879 5878 5878 5878 5878 5879 5879 5880 5880 5880 5880 5881 5881 5882 5882 5881 5882 5882 5882 5882 5882 5882 5882 5882 5881 5881 5881 5881 5881 5881 5881 5881 5880 5880 5880 5880 5880
5887 5886 5884 5883 5882 5881 5880 5879 5879 5879 5879 5880 5880 5880 5881 5881 5881 5881 5882 5882 5882 5882 5882 5882 5882 5882 5882 5882 5882 5881 5881 5880 5880 5880 5880 5880 5880 5880 5879 5879 5879 5879 5879
5889 5887 5886 5884 5883 5882 5881 5881 5880 5880 5880 5881 5881 5881 5881 5881 5881 5882 5882 5882 5882 5882 5882 5882 5882 5882 5882 5881 5881 5881 5880 5880 5880 5879 5879 5879 5879 5879 5878 5878 5878 5877 5877
5891 5889 5888 5886 5884 5884 5883 5882 5882 5882 5882 5882 5882 5882 5882 5882 5882 5882 5882 5883 5883 5882 5882 5882 5882 5882 5882 5881 5881 5880 5880 5879 5879 5879 5878 5878 5878 5878 5877 5877 5876 5876 5876
5892 5891 5889 5888 5887 5886 5885 5884 5884 5884 5883 5883 5883 5883 5883 5883 5883 5883 5883 5883 5883 5883 5882 5882 5882 5882 5882 5881 5880 5880 5879 5879 5878 5878 5878 5877 5877 5877 5876 5875 5875 5874 5874
5894 5892 5891 5890 5888 5888 5887 5886 5885 5885 5884 5884 5884 5884 5883 5883 5883 5883 5883 5883 5883 5883 5883 5882 5882 5882 5882 5881 5880 5879 5879 5878 5878 5878 5877 5877 5876 5876 5875 5874 5873 5872 5872
5895 5894 5892 5891 5890 5889 5888 5887 5887 5886 5885 5885 5885 5884 5884 5884 5884 5884 5884 5883 5883 5883 5882 5882 5882 5881 5881 5880 5879 5879 5879 5878 5877 5877 5877 5876 5875 5874 5874 5873 5872 5871 5870
5896 5894 5893 5892 5891 5890 5889 5888 5887 5886 5886 5885 5885 5884 5884 5884 5884 5883 5883 5883 5883 5882 5882 5882 5881 5881 5880 5880 5879 5878 5878 5877 5877 5876 5876 5875 5875 5874 5873 5872 5871 5870 5869
5896 5895 5893 5892 5891 5890 5889 5888 5887 5887 5886 5885 5885 5884 5884 5884 5884 5883 5883 5883 5882 5882 5881 5881 5880 5880 5880 5879 5879 5878 5877 5877 5876 5875 5875 5874 5873 5873 5872 5871 5870 5869 5868